Regional Weather Roundup
Issued by NWS Sioux Falls, SD

Home | Current Version | Previous Version | Text Only | Print | Product List | Glossary Off
Versions: 1 2 3 4 5 6 7 8 9 10 11 12 13 14 15 16 17 18 19 20 21 22 23 24 25 26 27 28 29 30 31 32 33 34 35 36 37 38 39 40 41 42 43 44 45 46 47 48 49 50

000
ASUS43 KFSD 030610
RWRFSD

WEATHER ROUNDUP FOR SE SOUTH DAKOTA/SW MINNESOTA/NW IOWA
NATIONAL WEATHER SERVICE SIOUX FALLS SD
1200 AM CST TUE MAR 03 2015

NOTE: "FAIR" INDICATES FEW OR NO CLOUDS BELOW 12,000 FEET WITH NO
SIGNIFICANT WEATHER AND OR OBSTRUCTIONS TO VISIBILITY.


SDZ038>040-050-052>070-030700-
SOUTHEAST SOUTH DAKOTA

CITY           SKY/WX    TMP DP  RH WIND       PRES   REMARKS
CHAMBERLAIN    MOCLDY    33  17  53 S12G17    29.73F WCI  24
6HR MIN TEMP:  33; 6HR MAX TEMP:  39;

HURON          CLOUDY    31  21  66 S14       29.78F WCI  21
6HR MIN TEMP:  31; 6HR MAX TEMP:  33;

MADISON        MOCLDY    27  25  93 S13       29.81F WCI  16
MITCHELL         N/A     32  20  61 SE13      29.80F WCI  22
6HR MIN TEMP:  31; 6HR MAX TEMP:  35;

SIOUX FALLS    CLOUDY    27  19  72 SE16      29.83F WCI  15
6HR MIN TEMP:  27; 6HR MAX TEMP:  30;

WINNER         FAIR      33  16  49 S14       29.70F WCI  23
YANKTON        FAIR      30  19  64 SE12      29.84F WCI  21
$$

MNZ071-072-080-081-089-090-097-098-030700-
SOUTHWEST MINNESOTA

CITY           SKY/WX    TMP DP  RH WIND       PRES   REMARKS
FAIRMONT       CLOUDY    23  16  74 SE14      29.96F WCI  11
JACKSON        CLOUDY    25  21  86 SE12      29.93F WCI  14
LUVERNE        FAIR      28  21  74 SE14      29.87F WCI  17
MARSHALL       MOCLDY    25  18  74 S15       29.90F WCI  12
6HR MIN TEMP:  25; 6HR MAX TEMP:  27;

MONTEVIDEO     CLOUDY    25  21  86 S14       29.91F WCI  13
PIPESTONE      CLOUDY    27  19  74 S17G24    29.84F WCI  14
REDWOOD FALLS  FLURRIES  24  18  77 SE15      29.95F WCI  11
TRACY          CLOUDY    26  21  79 S12       29.90F WCI  16
WINDOM         CLOUDY    23  19  86 SE12      29.92F WCI  12
WORTHINGTON    CLOUDY    25  18  74 S10G20    29.91F WCI  15
$$

IAZ001>003-012>014-020>022-031-032-NEZ013-014-SDZ071-030700-
NORTHWEST IOWA

CITY           SKY/WX    TMP DP  RH WIND       PRES   REMARKS
CHEROKEE       FAIR      27  21  80 SE13      29.90F WCI  16
DENISON        CLOUDY    28  23  80 SE14G21   29.89F WCI  17
ESTHERVILLE    CLOUDY    23  18  81 SE14      29.94F WCI  11
LE MARS        FAIR      28  21  74 SE12      29.88F WCI  18
ORANGE CITY    FAIR      28  19  69 SE3       29.87F
SHELDON        CLOUDY    27  21  80 SE17G23   29.88F WCI  14
SIOUX CITY     MOCLDY    31  20  63 SE12      29.88F WCI  22
6HR MIN TEMP:  31; 6HR MAX TEMP:  35;

SPENCER        CLOUDY    27  19  72 SE12      29.92F WCI  17
6HR MIN TEMP:  26; 6HR MAX TEMP:  28;

STORM LAKE     MOCLDY    25  19  80 SE15      29.91F WCI  12
$$

ABBREVIATIONS USED IN REMARKS
   TC - TEMPERATURE IN CELSIUS
  WCI - WIND CHILL INDEX
   HX - HEAT INDEX
  VSB - VISIBILITY




USA.gov is the U.S. government's official web portal to all federal, state and local government web resources and services.